Location: Kawakawa
(35.3830°S, 174.0670°E)
Time: 07:14:14
(UTC+13:00)

A-11 Canister half - Pass Details

Date: 13 December 2019
Orbit: 1525 x 1684 km, 47.3° (Epoch: 23 January)

Event Time Altitude Azimuth Distance (km) Brightness Sun altitude
Rises 22:05:13 0° 249° (WSW) 4,692 12.8 -15.8°
Reaches altitude 10° 22:08:33 10° 241° (WSW) 3,710 12.2 -16.3°
Maximum altitude 22:17:16 41° 172° (S) 2,111 10.0 -17.5°
Drops below altitude 10° 22:26:06 10° 104° (ESE) 3,765 10.8 -18.8°
Sets 22:29:30 0° 96° (E) 4,767 11.3 -19.2°
